When you browse on this site, cookies collect data to enhance your experience and personalize the content and advertising you see.
Visit our Privacy Policy to learn more. By continuing to use the site, you agree to this use of cookies and data.
  • In Czech Republic
  • List of Countries
  • For 7 days
  • Water Temperature
  • Satellite Maps
  • Weather Map
  • Weather Widgets
  • user-avatar
    Login

    Hourly Weather Wauwatosa

    Today, 17 July, Wednesday

    Time Temperature Precipitation Wind Pressure Humidity
    00:00 +24°C° 0.7 mm 1 mps 737 mmHg 90%
    01:00 +24°C° 0 mm 1 mps 737 mmHg 90%
    02:00 +24°C° 0 mm 1 mps 737 mmHg 90%
    03:00 +24°C° 0 mm 1 mps 737 mmHg 90%
    04:00 +24°C° 0.1 mm 1 mps 737 mmHg 90%
    05:00 +24°C° 0.1 mm 2 mps 738 mmHg 91%
    06:00 +24°C° 0.1 mm 2 mps 738 mmHg 91%
    07:00 +25°C° 0.1 mm 2 mps 739 mmHg 87%
    08:00 +26°C° 0.1 mm 2 mps 739 mmHg 83%
    09:00 +27°C° 0.1 mm 2 mps 739 mmHg 79%
    10:00 +28°C° 0.3 mm 2 mps 739 mmHg 76%
    11:00 +29°C° 0.3 mm 2 mps 740 mmHg 73%
    12:00 +30°C° 0.3 mm 2 mps 740 mmHg 70%
    13:00 +30°C° 0.2 mm 2 mps 739 mmHg 69%
    14:00 +30°C° 0.2 mm 3 mps 739 mmHg 69%
    15:00 +30°C° 0.2 mm 3 mps 739 mmHg 68%
    16:00 +29°C° 0 mm 3 mps 739 mmHg 72%
    17:00 +28°C° 0 mm 2 mps 739 mmHg 75%
    18:00 +27°C° 0 mm 2 mps 739 mmHg 79%
    19:00 +26°C° 0 mm 2 mps 739 mmHg 82%
    20:00 +25°C° 0 mm 3 mps 739 mmHg 85%
    21:00 +24°C° 0 mm 3 mps 739 mmHg 89%
    22:00 +24°C° 0 mm 3 mps 738 mmHg 90%
    23:00 +24°C° 0 mm 3 mps 738 mmHg 91%

    Tomorrow, 18 July, Thursday

    Time Temperature Precipitation Wind Pressure Humidity
    00:00 +23°C° 0 mm 4 mps 738 mmHg 92%
    01:00 +23°C° 0 mm 4 mps 738 mmHg 91%
    02:00 +23°C° 0 mm 4 mps 737 mmHg 90%
    03:00 +23°C° 0 mm 5 mps 737 mmHg 90%
    04:00 +25°C° 0.4 mm 5 mps 736 mmHg 90%
    05:00 +24°C° 0.4 mm 6 mps 736 mmHg 91%
    06:00 +26°C° 0.4 mm 7 mps 736 mmHg 91%
    07:00 +27°C° 0 mm 7 mps 735 mmHg 88%
    08:00 +28°C° 0 mm 6 mps 735 mmHg 85%
    09:00 +30°C° 0 mm 6 mps 735 mmHg 82%
    10:00 +32°C° 0 mm 6 mps 735 mmHg 80%
    11:00 +32°C° 0 mm 6 mps 735 mmHg 79%
    12:00 +33°C° 0 mm 5 mps 735 mmHg 77%
    13:00 +33°C° 0 mm 6 mps 735 mmHg 76%
    14:00 +34°C° 0 mm 6 mps 734 mmHg 75%
    15:00 +34°C° 0 mm 6 mps 734 mmHg 74%
    16:00 +34°C° 0 mm 6 mps 734 mmHg 76%
    17:00 +33°C° 0 mm 6 mps 734 mmHg 79%
    18:00 +33°C° 0 mm 6 mps 734 mmHg 82%
    19:00 +32°C° 0 mm 7 mps 734 mmHg 83%
    20:00 +30°C° 0 mm 7 mps 734 mmHg 84%
    21:00 +30°C° 0 mm 7 mps 735 mmHg 85%
    22:00 +30°C° 0 mm 7 mps 735 mmHg 85%
    23:00 +29°C° 0 mm 7 mps 735 mmHg 84%

    Day after tomorrow, 19 July, Friday

    Time Temperature Precipitation Wind Pressure Humidity
    00:00 +29°C° 0 mm 7 mps 734 mmHg 84%
    01:00 +29°C° 0 mm 6 mps 734 mmHg 84%
    02:00 +29°C° 0 mm 6 mps 734 mmHg 85%
    03:00 +28°C° 0 mm 6 mps 734 mmHg 85%
    04:00 +28°C° 0 mm 6 mps 735 mmHg 86%
    05:00 +28°C° 0 mm 5 mps 735 mmHg 87%
    06:00 +28°C° 0 mm 5 mps 735 mmHg 88%
    07:00 +29°C° 0 mm 5 mps 736 mmHg 85%
    08:00 +30°C° 0 mm 5 mps 736 mmHg 82%
    09:00 +32°C° 0 mm 5 mps 736 mmHg 79%
    10:00 +33°C° 0 mm 5 mps 736 mmHg 78%
    11:00 +33°C° 0 mm 5 mps 736 mmHg 76%
    12:00 +34°C° 0 mm 6 mps 736 mmHg 74%
    13:00 +34°C° 0 mm 6 mps 736 mmHg 74%
    14:00 +35°C° 0 mm 7 mps 735 mmHg 73%
    15:00 +35°C° 0 mm 7 mps 735 mmHg 73%
    16:00 +34°C° 0 mm 7 mps 735 mmHg 76%
    17:00 +33°C° 0 mm 7 mps 735 mmHg 79%
    18:00 +33°C° 0 mm 7 mps 734 mmHg 82%
    19:00 +32°C° 0 mm 7 mps 735 mmHg 83%
    20:00 +30°C° 0 mm 7 mps 735 mmHg 85%
    21:00 +30°C° 0 mm 7 mps 735 mmHg 86%
    22:00 +30°C° 0 mm 7 mps 735 mmHg 86%
    23:00 +30°C° 0 mm 6 mps 735 mmHg 86%

    20 July, Saturday

    Time Temperature Precipitation Wind Pressure Humidity
    00:00 +30°C° 0 mm 6 mps 735 mmHg 86%
    01:00 +29°C° 0 mm 6 mps 735 mmHg 88%
    02:00 +29°C° 0 mm 5 mps 735 mmHg 89%
    03:00 +29°C° 0 mm 4 mps 735 mmHg 91%
    04:00 +28°C° 1.1 mm 4 mps 736 mmHg 91%
    05:00 +28°C° 1.1 mm 4 mps 736 mmHg 92%
    06:00 +27°C° 1.1 mm 3 mps 736 mmHg 92%
    07:00 +27°C° 2.8 mm 3 mps 737 mmHg 90%
    08:00 +26°C° 2.8 mm 3 mps 737 mmHg 89%
    09:00 +26°C° 2.8 mm 3 mps 737 mmHg 87%
    10:00 +26°C° 0.4 mm 3 mps 738 mmHg 82%
    11:00 +27°C° 0.4 mm 3 mps 738 mmHg 76%
    12:00 +28°C° 0.4 mm 4 mps 738 mmHg 71%
    13:00 +29°C° 0 mm 3 mps 738 mmHg 68%
    14:00 +29°C° 0 mm 2 mps 738 mmHg 65%
    15:00 +30°C° 0 mm 2 mps 738 mmHg 62%
    16:00 +29°C° 0 mm 2 mps 738 mmHg 64%
    17:00 +28°C° 0 mm 2 mps 738 mmHg 66%
    18:00 +27°C° 0 mm 2 mps 738 mmHg 68%
    19:00 +26°C° 0 mm 2 mps 739 mmHg 70%
    20:00 +24°C° 0 mm 1 mps 739 mmHg 72%
    21:00 +23°C° 0 mm 1 mps 739 mmHg 75%
    22:00 +22°C° 0 mm 1 mps 739 mmHg 76%
    23:00 +22°C° 0 mm 1 mps 740 mmHg 77%

    21 July, Sunday

    Time Temperature Precipitation Wind Pressure Humidity
    00:00 +20°C° 0 mm 2 mps 740 mmHg 79%
    01:00 +20°C° 0 mm 2 mps 740 mmHg 79%
    02:00 +20°C° 0 mm 2 mps 740 mmHg 80%
    03:00 +19°C° 0 mm 3 mps 740 mmHg 80%
    04:00 +20°C° 0 mm 2 mps 740 mmHg 81%
    05:00 +20°C° 0 mm 2 mps 740 mmHg 82%
    06:00 +20°C° 0 mm 2 mps 741 mmHg 83%
    07:00 +21°C° 0 mm 3 mps 741 mmHg 80%
    08:00 +22°C° 0 mm 4 mps 741 mmHg 77%
    09:00 +23°C° 0 mm 5 mps 741 mmHg 74%
    10:00 +23°C° 0 mm 5 mps 741 mmHg 70%
    11:00 +25°C° 0 mm 5 mps 742 mmHg 66%
    12:00 +24°C° 0 mm 6 mps 742 mmHg 62%
    13:00 +24°C° 0 mm 6 mps 742 mmHg 59%
    14:00 +24°C° 0 mm 6 mps 741 mmHg 57%
    15:00 +24°C° 0 mm 6 mps 741 mmHg 54%
    16:00 +23°C° 0 mm 5 mps 741 mmHg 55%
    17:00 +22°C° 0 mm 5 mps 741 mmHg 56%
    18:00 +21°C° 0 mm 4 mps 741 mmHg 58%
    19:00 +20°C° 0 mm 4 mps 742 mmHg 55%
    20:00 +19°C° 0 mm 4 mps 742 mmHg 52%
    21:00 +18°C° 0 mm 4 mps 742 mmHg 49%
    22:00 +18°C° 0 mm 4 mps 743 mmHg 49%
    23:00 +18°C° 0 mm 4 mps 743 mmHg 48%

    22 July, Monday

    Time Temperature Precipitation Wind Pressure Humidity
    00:00 +18°C° 0 mm 4 mps 743 mmHg 47%
    01:00 +18°C° 0 mm 3 mps 743 mmHg 48%
    02:00 +17°C° 0 mm 3 mps 743 mmHg 48%
    03:00 +17°C° 0 mm 3 mps 743 mmHg 49%
    04:00 +17°C° 0 mm 3 mps 743 mmHg 53%
    05:00 +17°C° 0 mm 3 mps 744 mmHg 56%
    06:00 +17°C° 0 mm 3 mps 744 mmHg 60%
    07:00 +19°C° 0 mm 3 mps 744 mmHg 58%
    08:00 +21°C° 0 mm 3 mps 745 mmHg 56%
    09:00 +24°C° 0 mm 3 mps 745 mmHg 54%
    10:00 +25°C° 0 mm 2 mps 745 mmHg 53%
    11:00 +26°C° 0 mm 2 mps 745 mmHg 51%
    12:00 +27°C° 0 mm 2 mps 745 mmHg 50%
    13:00 +27°C° 0 mm 2 mps 745 mmHg 51%
    14:00 +27°C° 0 mm 3 mps 744 mmHg 52%
    15:00 +27°C° 0 mm 3 mps 744 mmHg 53%
    16:00 +26°C° 0 mm 2 mps 744 mmHg 57%
    17:00 +26°C° 0 mm 2 mps 744 mmHg 61%
    18:00 +25°C° 0 mm 2 mps 744 mmHg 65%
    19:00 +24°C° 0 mm 2 mps 744 mmHg 68%
    20:00 +23°C° 0 mm 2 mps 745 mmHg 71%
    21:00 +20°C° 0 mm 3 mps 745 mmHg 74%
    22:00 +20°C° 0 mm 3 mps 745 mmHg 76%
    23:00 +19°C° 0 mm 3 mps 745 mmHg 79%
    Show more